This demonstration page uses our WeatherBlox Daily Observations layout. Learn more.

Left ArrowRight Arrow

Hourly Observations for November 6, 2022

Temp ( °F °C ) Dew Point ( °F °C ) Humidity (%) Winds ( mph kmh ) Pressure ( in mb ) Visibility ( mi km ) Precip ( " mm )
12:53 am 00:53 Partly Cloudy 48 8.9 39 3.9 71 71 S 9 15 29.71 1006 10 16 0.00 0.00
1:53 am 01:53 Partly Cloudy 46 7.8 39 3.9 76 76 SSE 9 15 29.70 1006 10 16 0.00 0.00
1:53 am 01:53 Partly Cloudy 43 6.1 38 3.3 82 82 SSE 9 15 29.70 1006 10 16 0.00 0.00
2:53 am 02:53 Partly Cloudy 43 6.1 39 3.9 86 86 S 7 11 29.70 1006 10 16 0.00 0.00
3:53 am 03:53 Partly Cloudy 43 6.1 39 3.9 86 86 SE 6 9 29.71 1006 10 16 0.00 0.00
4:53 am 04:53 Clear 43 6.1 39 3.9 86 86 NE 5 7 29.74 1007 10 16 0.00 0.00
5:53 am 05:53 Clear 42 5.6 38 3.3 85 85 ENE 5 7 29.77 1008 10 16 0.00 0.00
6:53 am 06:53 Partly Cloudy 41 5 39 3.9 93 93 ENE 5 7 29.78 1009 10 16 0.00 0.00
7:53 am 07:53 Partly Cloudy 44 6.7 41 5 89 89 ENE 5 7 29.82 1010 10 16 0.00 0.00
8:53 am 08:53 Partly Cloudy 49 9.4 43 6.1 80 80 Calm 29.86 1011 10 16 0.00 0.00
9:53 am 09:53 Partly Cloudy 54 12.2 44 6.7 69 69 NNW 3 6 29.89 1012 10 16 0.00 0.00
10:53 am 10:53 Partly Cloudy 57 13.9 44 6.7 62 62 N 13 20 29.91 1013 10 16 0.00 0.00
11:53 am 11:53 Partly Cloudy 60 15.6 44 6.7 55 55 N 13 20 29.92 1013 10 16 0.00 0.00
12:53 pm 12:53 Partly Cloudy 63 17.2 43 6.1 48 48 NNE 14 22 29.91 1013 10 16 0.00 0.00
1:53 pm 13:53 Partly Cloudy 63 17.2 43 6.1 48 48 NNE 18 30 29.93 1014 10 16 0.00 0.00
2:53 pm 14:53 Mostly Sunny 65 18.3 42 5.6 43 43 NE 15 24 29.96 1015 10 16 0.00 0.00
3:53 pm 15:53 Mostly Sunny 64 17.8 42 5.6 45 45 NE 14 22 29.99 1016 10 16 0.00 0.00
4:53 pm 16:53 Mostly Sunny 62 16.7 41 5 46 46 NNE 16 26 30.02 1017 10 16 0.00 0.00
5:53 pm 17:53 Mostly Clear 57 13.9 41 5 55 55 NE 10 17 30.06 1018 10 16 0.00 0.00
6:53 pm 18:53 Clear 55 12.8 41 5 59 59 ENE 10 17 30.09 1019 10 16 0.00 0.00
7:53 pm 19:53 Clear 54 12.2 40 4.4 59 59 NNE 12 19 30.14 1021 10 16 0.00 0.00
8:53 pm 20:53 Clear 53 11.7 35 1.7 50 50 NE 15 24 30.17 1022 10 16 0.00 0.00
9:53 pm 21:53 Clear 52 11.1 30 -1.1 43 43 NE 17 28 30.19 1022 10 16 0.00 0.00
10:53 pm 22:53 Clear 51 10.6 27 -2.8 39 39 ENE 16 26 30.22 1023 10 16 0.00 0.00
11:53 pm 23:53 Clear 50 10 27 -2.8 40 40 NE 14 22 30.24 1024 10 16 0.00 0.00

Powered by AerisWeather